Sioux City, IA

3:05 PM CST on December 09, 2019 (GMT -0600)
Sioux Gateway

Weather History for KSUX - October, 2019

Change the Weather History Date:

Thursday, October 3, 2019

  Actual Average Record
Temperature  
Mean Temperature 46 °F 56 °F  
Max Temperature 54 °F 69 °F 96 °F (1938)
Min Temperature 37 °F 43 °F 28 °F (1987)
Degree Days  
Heating Degree Days 20 10  
Month to date heating degree days 43 28  
Since 1 July heating degree days 79 175  
Cooling Degree Days 0 1  
Month to date cooling degree days 0 3  
Year to date cooling degree days 910 864  
Moisture  
Dew Point 41 °F    
Average Humidity 82    
Maximum Humidity 93    
Minimum Humidity 66    
Precipitation  
Precipitation 0.00 in 0.09 in 1.49 in (1891)
Month to date precipitation 1.76 0.28  
Year to date precipitation 29.87 23.78  
Snow  
Snow 0.00 in 0.00 in 0.00 in ()
Month to date snowfall 0.0 0.0  
Since 1 July snowfall 0.0 0.0  
Since 1 September snowfall 0.0 0.0  
Snow Depth 0.00 in    
Sea Level Pressure  
Sea Level Pressure 30.28 in    
Wind  
Wind Speed 11 mph ()    
Max Wind Speed 22 mph    
Max Gust Speed 30 mph    
Visibility 10.0 miles    
Events      
T = Trace of Precipitation, MM = Missing Value Source: Averaged Metar Reports

Daily Weather History Graph

Daily Weather History Graph

Search for Another Location

Airport or City:

Astronomy

Oct. 03, 2019 Rise Set
Actual Time 7:24 AM CDT 7:03 PM CDT
Civil Twilight 6:56 AM CDT 7:31 PM CDT
Nautical Twilight 6:24 AM CDT 8:04 PM CDT
Astronomical Twilight 5:51 AM CDT 8:37 PM CDT
Moon 1:03 PM CDT (10/3) 10:37 PM CDT (10/3)
Length of Visible Light 12h 35m
Length of Day
11h 39m
Waxing Crescent, 30% of the Moon is Illuminated
Oct 3
Waxing Crescent
Oct 5
First Quarter
Oct 13
Full
Oct 21
Last Quarter
Oct 27
New

Hourly Weather History & Observations

Time (CDT) Temp. Windchill Dew Point Humidity Pressure Visibility Wind Dir Wind Speed Gust Speed Precip Events Conditions
12:52 AM 46.9 °F - 45.0 °F 93% 30.13 in 10.0 mi NW 10.4 mph - N/A   Overcast
1:08 AM 46.9 °F - 45.0 °F 93% 30.12 in 10.0 mi WNW 11.5 mph - N/A   Overcast
1:34 AM 46.0 °F 41.0 °F 44.1 °F 93% 30.13 in 10.0 mi NW 10.4 mph - N/A   Partly Cloudy
1:52 AM 46.0 °F 39.6 °F 43.0 °F 89% 30.14 in 10.0 mi NW 15.0 mph - N/A   Partly Cloudy
2:25 AM 46.0 °F 39.3 °F 43.0 °F 89% 30.14 in 10.0 mi NNW 16.1 mph 26.5 mph N/A   Mostly Cloudy
2:52 AM 46.0 °F 40.2 °F 43.0 °F 89% 30.17 in 10.0 mi NW 12.7 mph - N/A   Mostly Cloudy
3:52 AM 46.0 °F 40.2 °F 43.0 °F 89% 30.17 in 10.0 mi NW 12.7 mph - N/A   Overcast
4:08 AM 46.0 °F 39.0 °F 42.1 °F 86% 30.16 in 10.0 mi NW 17.3 mph - N/A   Overcast
4:41 AM 45.0 °F 37.1 °F 41.0 °F 86% 30.18 in 10.0 mi NW 19.6 mph 29.9 mph N/A   Overcast
4:52 AM 45.0 °F 37.4 °F 41.0 °F 86% 30.20 in 10.0 mi NW 18.4 mph 26.5 mph N/A   Overcast
5:52 AM 45.0 °F 38.2 °F 41.0 °F 86% 30.24 in 10.0 mi NNW 15.0 mph - N/A   Overcast
6:52 AM 44.1 °F 37.7 °F 39.9 °F 85% 30.26 in 10.0 mi NW 12.7 mph - N/A   Overcast
7:52 AM 44.1 °F 39.5 °F 41.0 °F 89% 30.28 in 10.0 mi NNW 8.1 mph - N/A   Overcast
8:52 AM 45.0 °F 39.3 °F 39.0 °F 80% 30.30 in 10.0 mi North 11.5 mph - N/A   Overcast
9:52 AM 45.0 °F 38.9 °F 41.0 °F 86% 30.32 in 10.0 mi NW 12.7 mph - N/A   Overcast
10:52 AM 45.0 °F 39.3 °F 39.0 °F 80% 30.34 in 10.0 mi WNW 11.5 mph - N/A   Overcast
11:52 AM 46.9 °F - 39.9 °F 77% 30.36 in 10.0 mi NW 12.7 mph 24.2 mph N/A   Overcast
12:52 PM 48.9 °F - 41.0 °F 74% 30.35 in 10.0 mi NW 13.8 mph - N/A   Overcast
1:52 PM 51.1 °F - 43.0 °F 74% 30.35 in 10.0 mi NW 16.1 mph 21.9 mph N/A   Mostly Cloudy
2:44 PM 52.0 °F - 41.0 °F 66% 30.33 in 10.0 mi NW 13.8 mph - N/A   Scattered Clouds
2:52 PM 52.0 °F - 42.1 °F 69% 30.35 in 10.0 mi NW 12.7 mph - N/A   Partly Cloudy
3:52 PM 53.1 °F - 42.1 °F 66% 30.33 in 10.0 mi NNW 13.8 mph - N/A   Clear
4:52 PM 54.0 °F - 43.0 °F 66% 30.33 in 10.0 mi NNW 9.2 mph 17.3 mph N/A   Clear
5:52 PM 52.0 °F - 42.1 °F 69% 30.35 in 10.0 mi NW 8.1 mph - N/A   Scattered Clouds
6:52 PM 48.0 °F - 41.0 °F 77% 30.35 in 10.0 mi NNW 5.8 mph - N/A   Scattered Clouds
7:52 PM 46.9 °F - 42.1 °F 83% 30.37 in 10.0 mi North 5.8 mph - N/A   Scattered Clouds
7:59 PM 46.0 °F 43.1 °F 41.0 °F 83% 30.35 in 10.0 mi North 5.8 mph - N/A   Overcast
8:23 PM 45.0 °F 41.2 °F 39.9 °F 82% 30.35 in 10.0 mi NNE 6.9 mph - N/A   Scattered Clouds
8:52 PM 45.0 °F 41.2 °F 39.0 °F 80% 30.38 in 10.0 mi NNE 6.9 mph - N/A   Clear
9:52 PM 42.1 °F 38.4 °F 37.9 °F 85% 30.39 in 10.0 mi North 5.8 mph - N/A   Clear
10:52 PM 41.0 °F 37.1 °F 37.9 °F 89% 30.40 in 10.0 mi North 5.8 mph - N/A   Clear
11:52 PM 41.0 °F - 37.9 °F 89% 30.41 in 10.0 mi Calm Calm - N/A   Clear